090528 H45  0.2+  0.1-    090711 A77  0.2+  0.5-    090831 118  0.2-  0.1+  
090528 H45  0.0   0.3+    090711 A77  0.2+  0.7-    090831 118  0.0   0.1+  
090528 H45  0.0   0.6+    090712 H10  0.3+  0.4-    090831 118  0.2+  0.6+  
090528 H45  0.3+  0.0     090712 H10  0.0   0.6-    090901 J47  0.5+  0.0   
090528 H45  0.5+  0.3+    090712 H10  0.3-  0.4-    090901 J47  1.2-  0.2+  
090528 H45  0.3+  0.5+    090713 H10  0.8-  0.5+    090901 J47  1.5-  1.5+  
090530 H10  0.3-  0.5-    090713 H10  0.3-  0.4-    090904 J97  1.8+  1.6+  
090530 H45  0.4-  0.5-    090713 H10  0.1+  0.0     090904 J97  0.7-  0.8+  
090530 H45  0.1-  0.3-    090713 H10  0.8+  1.1-    090904 J97  0.7-  0.3+  
090530 H10  0.6-  0.2+    090714 900  0.3-  0.7+    090905 212 (0.9+  3.6+) 
090530 H45  0.0   0.2-    090714 900  0.4-  1.3+    090907 118  0.4-  0.2-  
090530 H45  0.5+  0.4+    090715 J28  0.2-  0.7-    090907 118  0.2-  0.2-  
090530 H45  0.4+  0.1+    090715 J28  0.4-  0.5+    090907 118  0.4+  0.2-  
090530 H10  0.5+  0.3+    090715 850  0.2+  0.3-    090907 118  0.7+  0.2+  
090530 H45  0.2+  0.1+    090715 850  0.4-  0.2-    090907 118  0.8+  0.5+  
090530 H45  0.6+  0.2+    090715 850  0.7-  0.6-    090907 118  1.4+  0.0   
090530 H45  0.6+  0.3+    090715 160  0.4-  0.7+    090908 A71  0.6+  0.2+  
090531 372  0.2-  0.2-    090715 160  0.5-  0.1+    090908 A71  1.2+  0.9+  
090531 B96 (1.7-  4.0-)   090715 160  0.4-  0.0     090909 160  1.2+  0.4-  
090531 B96  1.4-  0.0     090715 130  0.3-  0.3+    090909 J97  0.1+  0.6+  
090531 B96  0.4+  0.4-    090715 130  0.5-  0.4-    090909 160  0.3+  0.1+  
090531 B96 (4.0-  1.5-)   090715 130  0.2-  0.1-    090909 160  0.1+  0.5+  
090601 H45  1.1+  0.5+    090715 130  0.6-  0.3-    090909 J97  0.0   1.0+  
090601 H45  0.7+  0.7+    090716 204  0.2-  0.6-    090909 J97  0.3+  0.5+  
090601 H45  0.9+  0.5+    090716 204  0.3-  0.2-    090909 J97  0.2-  0.4+  
090601 H45  0.5+  0.5-    090716 A79  0.1-  1.4-    090909 J97  0.2-  0.3-  
090601 H45  0.3+  0.2-    090716 A79  0.4+  1.3-    090910 B42  0.5-  0.1+  
090601 H45  0.6+  0.3+    090716 A79  0.5+  0.6-    090910 B42  0.5-  0.2+  
090601 900  0.2-  0.5+    090716 A79  0.3+  0.1+    090910 B42  0.1-  0.1-  
090601 900  0.0   0.0     090716 A79  0.7+  0.2-    090918 C08  0.6+  0.8-  
090601 372  0.2-  0.9+    090717 850  0.2+  0.4-    090918 C08  1.8-  0.6-  
090601 372  0.2+  0.7+    090717 850  0.0   0.4-    090919 900  0.6+  1.2+  
090602 H45  1.0-  0.4-    090717 H10  0.3-  0.1-    090919 900  0.4+  1.9+  
090602 H45  1.2-  0.8-    090717 H10  0.3-  0.1+    090921 703 (1.4+  2.8+) 
090602 H45  0.6-  0.1+    090717 H10  0.4+  0.7-    090921 703  0.8+  1.5+  
090602 H45  0.2-  0.3+    090718 A79  0.0   0.6-    090921 703 (2.0+  2.2+) 
090602 H45  0.6+  0.2+    090718 A79  0.2+  0.0     090921 703 (1.0+  2.4+) 
090602 850  0.5-  0.3-    090718 A79  0.3+  0.4-    090922 204  0.5-  0.1+  
090602 H45  0.3+  0.3+    090718 A79  0.5+  0.2+    090922 204  0.1-  0.1+  
090602 H45  0.2-  1.0-    090719 850  0.1+  0.1-    090926 H06  0.1-  0.7+  
090602 850  0.7-  0.3-    090719 850  0.6-  0.5-    090926 H06  0.1-  0.5+  
090602 850  1.6-  1.0-    090719 850  0.2+  0.1-    090926 H06  0.0   0.1+  
090602 160  0.1+  0.1+    090719 349  0.0   0.0     090926 B82  0.0   0.5-  
090602 160  0.2-  0.5+    090719 349  0.1-  0.3-    090926 B82  0.1-  0.9-  
090602 160  0.7-  0.1+    090719 349  0.2+  0.3-    090926 B82  1.5+  1.2+  
090602 B09  0.1+  0.5-    090721 850  1.0-  0.8-    090927 B82  0.4-  0.6-  
090602 B09  0.2+  0.7-    090721 850  0.3-  0.1+    090927 B82  0.4-  0.3+  
090603 850  1.0-  0.4+    090722 585  0.2-  1.5-    090927 B82  0.7+  0.2-  
090603 850  0.9-  0.2-    090722 585  0.1-  0.7+    090928 703  0.2+  0.9+  
090603 H10  0.2-  0.1+    090722 585  0.1+  1.1-    090928 704  0.3+  0.3+  
090603 H10  0.4-  0.2+    090724 850  0.2-  0.3-    090928 703  0.6+  0.3+  
090603 H10  0.1-  0.5+    090724 850  0.4-  0.0     090928 703  0.4-  1.7+  
090604 A13  0.1+  0.6+    090724 H45  0.2+  0.2-    090928 703  0.5-  0.6+  
090604 A13  0.2+  0.3-    090724 H45  0.1+  0.3-    090928 704  0.1+  0.8+  
090604 A13  0.7+  0.3+    090724 H45  0.1+  0.1-    090928 704  0.1+  0.4+  
090605 B40  0.2+  0.3+    090724 H45  0.1+  0.0     090928 704  0.5+  0.1+  
090605 B40  0.1-  0.9+    090724 H45  0.1+  0.2-    090928 704  0.3-  0.7+  
090606 B40  1.1-  0.4-    090724 H45  0.1+  0.4-    090930 H06  0.4+  0.8+  
090609 850  1.0+  0.1-    090724 J08  0.4+  0.1+    090930 H06  0.3+  0.9+  
090609 850  0.7+  0.0     090724 J08  0.3+  0.3-    090930 H06  0.5+  0.8+  
090610 585  0.5-  1.9+    090724 J08  0.3+  0.5-    091016 G96  1.1-  0.7-  
090610 585  0.8-  1.9+    090725 H10  0.1+  0.1+    091016 G96  0.5-  1.1-  
090610 585  0.0   0.5+    090725 H10  0.0   0.6-    091016 G96  1.3-  0.9-  
090610 585  0.1-  0.7+    090726 160  0.1-  0.0     091016 G96  0.7-  0.9-  
090610 585  0.5+  0.7+    090726 160  0.3-  0.5-    091017 212  0.3+  0.3-  
090610 585  0.0   0.3+    090726 160  0.2-  0.0     091022 703  0.4-  0.5-  
090610 585  0.0   0.5+    090726 561  0.4+  0.8-    091022 703  0.6+  0.3+  
090610 585  0.1-  0.9+    090726 561  0.1+  0.3-    091022 703  0.6-  1.6-  
090610 585  0.1+  0.2+    090726 561  0.1-  0.3+    091022 703  0.9-  1.1-  
090610 585  0.1-  1.2-    090727 H45  0.3-  0.0     091105 H45  1.3+  1.3-  
090610 585  0.0   0.8-    090727 H45  0.4-  0.4+    091105 H45  0.1+  0.7-  
090611 349  0.6+  0.0     090727 H45  0.0   0.0     091105 H45  0.3+  1.4-  
090611 349  0.1+  0.5+    090727 H45  0.0   0.1+    091105 H45  0.4+  1.4-  
090611 349  0.1+  0.3+    090727 H45  0.1-  0.2+    091105 H45  0.5-  0.0   
090612 160  1.8-  0.8-    090727 H45  0.1+  0.2+    091105 H45  0.1-  0.5-  
090612 160  0.4-  0.3+    090728 160  0.1-  0.2+    091106 A77 (0.8+  2.3-) 
090612 160  0.2+  1.5+    090728 160  0.0   0.0     091106 A77 (0.7+  2.6-) 
090614 147 (0.2+  2.0-)   090728 B42  0.5+  0.4-    091106 A77  0.8+  1.2-  
0NAKANO
         **** Don't distribute anyone except personal use only ****
           (C) Copyright 2009 Orbit.Astro.Assoc./ComputingSection
write mail from CFAD0::NAKANO on 2009-12-12 08:25:42(JST).
    C/2009 K2 (Catalina)
Epoch 2010 Feb. 13.0 TT = JDT 2455240.5  
T 2010 Feb. 7.51802 TT                                  Nakano
q   3.2462889            (2000.0)            P               Q
z  +0.0007202      Peri.  147.69682     +0.29550553     +0.57377497
 +/-0.0000111      Node   123.80690     -0.94715382     +0.07150644
e   0.9976621      Incl.   66.82086     +0.12480437     -0.81588548
From 504 observations 2009 May 18-Aug. 27, mean residual 0".52.
   (1/a)org.= +0.001033, (1/a)fut.= +0.001232 (+/-0.000011), Q= 6.

NAKANO
         **** Don't distribute anyone except personal use only ****
           (C) Copyright 2009 Orbit.Astro.Assoc./ComputingSection
write mail from CFAD0::NAKANO on 2009-09-05 06:52:59(JST).
 
    C/2009 K2 (Catalina)
Epoch 2010 Feb. 13.0 TT = JDT 2455240.5  
T 2010 Feb. 7.51856 TT                                  Nakano
q   3.2463768            (2000.0)            P               Q
z  +0.0007507      Peri.  147.69452     +0.29548790     +0.57378960
 +/-0.0000268      Node   123.80732     -0.94715494     +0.07147260
e   0.9975630      Incl.   66.82078     +0.12483759     -0.81587815
From 377 observations 2009 May 18-July 27, mean residual 0".51.
   (1/a)org.= +0.001064, (1/a)fut.= +0.001262 (+/-0.000027), Q= 5.

NAKANO
         **** Don't distribute anyone except personal use only ****
                (C) Copyright 2009 OAA/ComputingSection
write mail from CFAD0::NAKANO on 2009-07-29 07:36:14(JST).
 
    C/2009 K2 (Catalina)
T 2010 Feb. 7.48652 TT                                  Nakano
q   3.2446112            (2000.0)            P               Q
                   Peri.  147.74439     +0.29566074     +0.57335881
                   Node   123.78190     -0.94719759     +0.07203959
e   1.0            Incl.   66.82600     +0.12410257     -0.81613110
From 204 observations 2009 May 18-June 17.

NAKANO
         **** Don't distribute anyone except personal use only ****
                (C) Copyright 2009 OAA/ComputingSection
write mail from CFAD0::NAKANO on 2009-06-20 01:00:31(JST).

◎C/2009 K2の軌道と予報位置

  2009年5月18日から6月11日までに行なわれた179個の観測から次の軌道を
決定した.軌道改良に使用した最終観測は,上尾の門田健一氏によるもので,
氏のCCD全光度は,18.4等であった.芸西の関勉氏から5月25日,31日,6月
1日,守山の井狩康一氏からも6月1日の観測が報告されている.

    C/2009 K2 (Catalina)
T 2010 Feb. 7.56431 TT                                  Nakano
q   3.2449491            (2000.0)            P               Q
                   Peri.  147.75188     +0.29564811     +0.57325849
                   Node   123.77453     -0.94721577     +0.07208421
e   1.0            Incl.   66.82851     +0.12399386     -0.81619763
From 179 observations 2009 May 18-June 11.
 
Date/        TT  R.A.(2000) Decl.     Delta   r     Daily motion  Mag.  Moon Age
              h    h  m       。  ,                      ,  / PA 。  m1      。
2009 June 10 12  16 17.56  +59 28.3   3.711  3.960    10.0 / 223  18.3   91  .93
          11 12  16 16.67  +59 20.9   3.708  3.954    10.2 / 221  18.3   93  .88
          12 12  16 15.80  +59 13.2   3.704  3.949    10.4 / 220  18.3   94  .81
          13 12  16 14.93  +59 05.3   3.701  3.944    10.5 / 219  18.3   96  .73
          14 12  16 14.09  +58 57.0   3.697  3.939    10.7 / 217  18.3   97  .64
          15 12  16 13.25  +58 48.5   3.694  3.934    10.9 / 216  18.3   98  .54
          16 12  16 12.44  +58 39.7   3.690  3.929    11.0 / 215  18.3   99  .44
          17 12  16 11.64  +58 30.6   3.687  3.924    11.2 / 213  18.3  100  .34
          18 12  16 10.85  +58 21.2   3.684  3.918    11.4 / 212  18.3  100  .24
          19 12  16 10.09  +58 11.5   3.680  3.913    11.6 / 211  18.3   99  .15
          20 12  16 09.34  +58 01.6   3.677  3.908    11.7 / 210  18.3   98  .08
          21 12  16 08.62  +57 51.4   3.674  3.903    11.9 / 208  18.3   96  .03
